Weather History for KIDI - November, 2013

Change the Weather History Date:

Wednesday, November 20, 2013

  Actual Average Record
Temperature  
Mean Temperature 32 °F -  
Max Temperature 44 °F 49 °F 73 °F (1953)
Min Temperature 21 °F 30 °F 11 °F (1951)
Degree Days  
Heating Degree Days 32    
Moisture  
Dew Point 14 °F    
Average Humidity 52    
Maximum Humidity 100    
Minimum Humidity 18    
Precipitation  
Precipitation 0.00 in - - ()
Sea Level Pressure  
Sea Level Pressure 30.42 in    
Wind  
Wind Speed 4 mph (ESE)    
Max Wind Speed 13 mph    
Max Gust Speed 20 mph    
Visibility 10 miles    
Events      
Averages and records for this station are not official NWS values.
T = Trace of Precipitation, MM = Missing Value Source: NWS Daily Summary

Daily Weather History Graph

Daily Weather History Graph

Search for Another Location

Airport or City:

Trip Planner

Search our weather history database for the weather conditions in past years. The results will help you decide how hot, cold, wet, or windy it might be!

Date:

Astronomy

Nov. 20, 2013 Rise Set
Actual Time 7:09 AM EST 4:54 PM EST
Civil Twilight 6:39 AM EST 5:24 PM EST
Nautical Twilight 6:06 AM EST 5:57 PM EST
Astronomical Twilight 5:33 AM EST 6:30 PM EST
Moon 7:36 PM EST (11/20) 9:33 AM EST (11/20)
Length of Visible Light 10h 45m
Length of Day
9h 45m
Waning Gibbous, 91% of the Moon is Illuminated
Nov 20
Waning Gibbous
Nov 25
Last Quarter
Dec 2
New
Dec 9
First Quarter
Dec 17
Full

Hourly Weather History & Observations

Time (EST) Temp. Windchill Dew Point Humidity Pressure Visibility Wind Dir Wind Speed Gust Speed Precip Events Conditions
12:15 AM 24.8 °F - 21.2 °F 86% 30.38 in 10.0 mi Calm Calm - N/A   Unknown
12:35 AM 24.8 °F 20.5 °F 23.0 °F 93% 30.38 in 10.0 mi NE 3.5 mph - N/A   Unknown
12:55 AM 24.8 °F - 23.0 °F 93% 30.38 in 10.0 mi Calm Calm - N/A   Unknown
1:15 AM 23.0 °F - 21.2 °F 93% 30.38 in 10.0 mi Calm Calm - N/A   Unknown
1:35 AM 24.8 °F - 23.0 °F 93% 30.38 in 10.0 mi Calm Calm - N/A   Unknown
1:55 AM 23.0 °F - 21.2 °F 93% 30.38 in 10.0 mi Calm Calm - N/A   Unknown
2:15 AM 23.0 °F - 21.2 °F 93% 30.38 in 10.0 mi Calm Calm - N/A   Unknown
2:35 AM 24.8 °F - 21.2 °F 86% 30.39 in 10.0 mi Calm Calm - N/A   Unknown
2:55 AM 23.0 °F - 21.2 °F 93% 30.39 in 10.0 mi Calm Calm - N/A   Unknown
3:15 AM 24.8 °F - 21.2 °F 86% 30.40 in 10.0 mi Calm Calm - N/A   Unknown
3:35 AM 21.2 °F - 21.2 °F 100% 30.40 in 10.0 mi Calm Calm - N/A   Unknown
3:55 AM 21.2 °F - 21.2 °F 100% 30.40 in 10.0 mi Calm Calm - N/A   Unknown
4:15 AM 24.8 °F - 21.2 °F 86% 30.40 in 10.0 mi Calm Calm - N/A   Unknown
4:35 AM 24.8 °F 19.1 °F 21.2 °F 86% 30.39 in 10.0 mi ENE 4.6 mph - N/A   Unknown
4:55 AM 24.8 °F 17.9 °F 21.2 °F 86% 30.39 in 10.0 mi East 5.8 mph - N/A   Unknown
5:15 AM 24.8 °F 16.1 °F 21.2 °F 86% 30.39 in 10.0 mi East 8.1 mph - N/A   Unknown
5:35 AM 24.8 °F 17.9 °F 21.2 °F 86% 30.39 in 10.0 mi East 5.8 mph - N/A   Unknown
5:55 AM 24.8 °F 17.9 °F 21.2 °F 86% 30.40 in 10.0 mi East 5.8 mph - N/A   Unknown
6:15 AM 24.8 °F 19.1 °F 21.2 °F 86% 30.41 in 10.0 mi East 4.6 mph - N/A   Unknown
6:35 AM 26.6 °F 20.0 °F 21.2 °F 80% 30.42 in 10.0 mi East 5.8 mph - N/A   Unknown
6:55 AM 26.6 °F - 21.2 °F 80% 30.43 in 10.0 mi Calm Calm - N/A   Unknown
7:15 AM 24.8 °F 20.5 °F 19.4 °F 80% 30.44 in 10.0 mi East 3.5 mph - N/A   Unknown
7:35 AM 24.8 °F 20.5 °F 19.4 °F 80% 30.44 in 10.0 mi ENE 3.5 mph - N/A   Unknown
7:55 AM 26.6 °F 21.2 °F 19.4 °F 74% 30.45 in 10.0 mi East 4.6 mph - N/A   Unknown
8:15 AM 26.6 °F 19.1 °F 21.2 °F 80% 30.45 in 10.0 mi East 6.9 mph - N/A   Unknown
8:35 AM 28.4 °F 21.2 °F 19.4 °F 69% 30.46 in 10.0 mi East 6.9 mph - N/A   Unknown
8:55 AM 28.4 °F 24.6 °F 19.4 °F 69% 30.47 in 10.0 mi ENE 3.5 mph - N/A   Unknown
9:15 AM 30.2 °F - 21.2 °F 69% 30.47 in 10.0 mi Calm Calm - N/A   Unknown
9:35 AM 32.0 °F 27.5 °F 17.6 °F 55% 30.47 in 10.0 mi East 4.6 mph - N/A   Unknown
9:55 AM 33.8 °F 26.4 °F 17.6 °F 52% 30.47 in 10.0 mi SE 9.2 mph - N/A   Unknown
10:15 AM 35.6 °F 28.6 °F 15.8 °F 44% 30.47 in 10.0 mi ESE 9.2 mph - N/A   Unknown
10:35 AM 37.4 °F 30.8 °F 12.2 °F 36% 30.48 in 10.0 mi ESE 9.2 mph - N/A   Unknown
10:55 AM 39.2 °F 33.0 °F 12.2 °F 33% 30.48 in 10.0 mi ESE 9.2 mph - N/A   Unknown
11:15 AM 41.0 °F 34.7 °F 10.4 °F 29% 30.47 in 10.0 mi ESE 10.4 mph - N/A   Unknown
11:35 AM 42.8 °F 38.0 °F 8.6 °F 25% 30.46 in 10.0 mi SE 8.1 mph - N/A   Unknown
11:55 AM 42.8 °F 37.0 °F 6.8 °F 23% 30.45 in 10.0 mi SE 10.4 mph 17.3 mph N/A   Unknown
12:15 PM 44.6 °F 39.2 °F 5.0 °F 20% 30.44 in 10.0 mi SSE 10.4 mph 16.1 mph N/A   Unknown
12:35 PM 44.6 °F 38.8 °F 3.2 °F 18% 30.43 in 10.0 mi SSE 11.5 mph 18.4 mph N/A   Unknown
12:55 PM 44.6 °F 39.7 °F 5.0 °F 20% 30.42 in 10.0 mi ESE 9.2 mph - N/A   Unknown
1:15 PM 44.6 °F 38.4 °F 6.8 °F 21% 30.42 in 10.0 mi South 12.7 mph - N/A   Unknown
1:35 PM 44.6 °F 39.2 °F 6.8 °F 21% 30.42 in 10.0 mi South 10.4 mph - N/A   Unknown
1:55 PM 44.6 °F 38.8 °F 5.0 °F 20% 30.42 in 10.0 mi SSE 11.5 mph 17.3 mph N/A   Unknown
2:15 PM 44.6 °F 40.2 °F 6.8 °F 21% 30.41 in 10.0 mi SE 8.1 mph - N/A   Unknown
2:35 PM 44.6 °F 39.7 °F 6.8 °F 21% 30.40 in 10.0 mi ESE 9.2 mph - N/A   Unknown
2:55 PM 44.6 °F 39.2 °F 8.6 °F 23% 30.39 in 10.0 mi ESE 10.4 mph - N/A   Unknown
3:15 PM 44.6 °F 38.8 °F 6.8 °F 21% 30.40 in 10.0 mi ESE 11.5 mph - N/A   Unknown
3:35 PM 42.8 °F 36.2 °F 6.8 °F 23% 30.40 in 10.0 mi SE 12.7 mph - N/A   Unknown
3:55 PM 42.8 °F 36.6 °F 8.6 °F 25% 30.40 in 10.0 mi SE 11.5 mph - N/A   Unknown
4:15 PM 41.0 °F 35.8 °F 10.4 °F 29% 30.40 in 10.0 mi ESE 8.1 mph - N/A   Unknown
4:35 PM 39.2 °F 33.6 °F 10.4 °F 31% 30.40 in 10.0 mi ESE 8.1 mph - N/A   Unknown
4:55 PM 39.2 °F 35.9 °F 10.4 °F 31% 30.40 in 10.0 mi East 4.6 mph - N/A   Unknown
5:15 PM 39.2 °F 35.9 °F 10.4 °F 31% 30.40 in 10.0 mi ESE 4.6 mph - N/A   Unknown
5:35 PM 37.4 °F 32.8 °F 10.4 °F 33% 30.40 in 10.0 mi ESE 5.8 mph - N/A   Unknown
5:55 PM 37.4 °F 32.1 °F 10.4 °F 33% 30.40 in 10.0 mi ESE 6.9 mph - N/A   Unknown
6:15 PM 37.4 °F 32.8 °F 10.4 °F 33% 30.40 in 10.0 mi ESE 5.8 mph - N/A   Unknown
6:35 PM 37.4 °F 32.1 °F 10.4 °F 33% 30.40 in 10.0 mi ESE 6.9 mph - N/A   Unknown
6:55 PM 37.4 °F 32.1 °F 8.6 °F 30% 30.40 in 10.0 mi ESE 6.9 mph - N/A   Unknown
7:15 PM 37.4 °F 32.1 °F 8.6 °F 30% 30.40 in 10.0 mi SE 6.9 mph - N/A   Unknown
7:35 PM 37.4 °F 30.8 °F 8.6 °F 30% 30.40 in 10.0 mi SE 9.2 mph - N/A   Unknown
7:55 PM 37.4 °F 32.8 °F 8.6 °F 30% 30.41 in 10.0 mi SE 5.8 mph - N/A   Unknown
8:15 PM 37.4 °F 33.8 °F 10.4 °F 33% 30.41 in 10.0 mi ESE 4.6 mph - N/A   Unknown
8:35 PM 37.4 °F 34.9 °F 12.2 °F 36% 30.41 in 10.0 mi SE 3.5 mph - N/A   Unknown
8:55 PM 37.4 °F 30.8 °F 12.2 °F 36% 30.42 in 10.0 mi SE 9.2 mph - N/A   Unknown
9:15 PM 37.4 °F 32.8 °F 12.2 °F 36% 30.41 in 10.0 mi SSE 5.8 mph 16.1 mph N/A   Unknown
9:35 PM 35.6 °F 29.2 °F 12.2 °F 38% 30.41 in 10.0 mi SE 8.1 mph - N/A   Unknown
9:55 PM 35.6 °F 31.7 °F 12.2 °F 38% 30.41 in 10.0 mi SE 4.6 mph - N/A   Unknown
10:15 PM 35.6 °F 30.7 °F 12.2 °F 38% 30.41 in 10.0 mi SE 5.8 mph - N/A   Unknown
10:35 PM 35.6 °F 28.6 °F 12.2 °F 38% 30.41 in 10.0 mi South 9.2 mph - N/A   Unknown
10:55 PM 35.6 °F 31.7 °F 12.2 °F 38% 30.41 in 10.0 mi ESE 4.6 mph - N/A   Unknown
11:15 PM 35.6 °F 27.1 °F 12.2 °F 38% 30.41 in 10.0 mi South 12.7 mph 19.6 mph N/A   Unknown
11:35 PM 35.6 °F 28.6 °F 14.0 °F 41% 30.42 in 10.0 mi South 9.2 mph - N/A   Unknown
11:55 PM 35.6 °F 27.5 °F 15.8 °F 44% 30.42 in 10.0 mi SSE 11.5 mph 16.1 mph N/A   Unknown